Stündliche Wetter Bolshie Karnyshi

Heute, 21 April, Mittwoch

Zeit Temperatur Niederschläge Wind Luftdruck Luftfeuchtigkeit
00:00 +6°C° 0 mm 1 m/S 733 mmHg 88%
01:00 +5°C° 0 mm 1 m/S 733 mmHg 89%
02:00 +5°C° 0 mm 1 m/S 733 mmHg 89%
03:00 +5°C° 0 mm 1 m/S 733 mmHg 90%
04:00 +3°C° 0 mm 0 m/S 732 mmHg 91%
05:00 +3°C° 0 mm 0 m/S 732 mmHg 92%
06:00 +4°C° 0 mm 0 m/S 732 mmHg 88%
07:00 +6°C° 0 mm 1 m/S 732 mmHg 83%
08:00 +8°C° 0 mm 1 m/S 733 mmHg 79%
09:00 +9°C° 0.1 mm 1 m/S 732 mmHg 74%
10:00 +10°C° 0.1 mm 1 m/S 732 mmHg 69%
11:00 +12°C° 0.1 mm 1 m/S 732 mmHg 64%
12:00 +12°C° 0.4 mm 1 m/S 732 mmHg 61%
13:00 +13°C° 0.4 mm 2 m/S 732 mmHg 58%
14:00 +12°C° 0.4 mm 3 m/S 732 mmHg 56%
15:00 +13°C° 0.3 mm 2 m/S 732 mmHg 57%
16:00 +13°C° 0.3 mm 2 m/S 731 mmHg 58%
17:00 +13°C° 0.3 mm 2 m/S 731 mmHg 60%
18:00 +12°C° 0.1 mm 2 m/S 731 mmHg 65%
19:00 +9°C° 0.1 mm 2 m/S 732 mmHg 70%
20:00 +8°C° 0.1 mm 2 m/S 732 mmHg 75%
21:00 +7°C° 0 mm 2 m/S 732 mmHg 77%
22:00 +7°C° 0 mm 2 m/S 732 mmHg 79%
23:00 +6°C° 0 mm 2 m/S 732 mmHg 81%

Morgen, 22 April, Donnerstag

Zeit Temperatur Niederschläge Wind Luftdruck Luftfeuchtigkeit
00:00 +6°C° 0 mm 2 m/S 732 mmHg 82%
01:00 +6°C° 0 mm 2 m/S 732 mmHg 83%
02:00 +5°C° 0 mm 2 m/S 732 mmHg 84%
03:00 +5°C° 0 mm 2 m/S 731 mmHg 86%
04:00 +5°C° 0 mm 2 m/S 731 mmHg 87%
05:00 +4°C° 0 mm 3 m/S 731 mmHg 89%
06:00 +5°C° 0.1 mm 3 m/S 731 mmHg 85%
07:00 +7°C° 0.1 mm 3 m/S 731 mmHg 82%
08:00 +8°C° 0.1 mm 4 m/S 732 mmHg 78%
09:00 +8°C° 0.2 mm 5 m/S 732 mmHg 76%
10:00 +8°C° 0.2 mm 5 m/S 732 mmHg 73%
11:00 +9°C° 0.2 mm 6 m/S 733 mmHg 70%
12:00 +8°C° 0 mm 6 m/S 733 mmHg 66%
13:00 +8°C° 0 mm 6 m/S 733 mmHg 62%
14:00 +8°C° 0 mm 6 m/S 733 mmHg 58%
15:00 +8°C° 0 mm 5 m/S 733 mmHg 55%
16:00 +7°C° 0 mm 5 m/S 733 mmHg 53%
17:00 +7°C° 0 mm 5 m/S 733 mmHg 51%
18:00 +6°C° 0 mm 4 m/S 733 mmHg 56%
19:00 +5°C° 0 mm 3 m/S 734 mmHg 61%
20:00 +4°C° 0 mm 3 m/S 734 mmHg 66%
21:00 +3°C° 0 mm 3 m/S 734 mmHg 70%
22:00 +2°C° 0 mm 3 m/S 734 mmHg 74%
23:00 +1°C° 0 mm 3 m/S 734 mmHg 77%

übermorgen, 23 April, Freitag

Zeit Temperatur Niederschläge Wind Luftdruck Luftfeuchtigkeit
00:00 +1°C° 0 mm 3 m/S 734 mmHg 81%
01:00 0°C° 0 mm 3 m/S 734 mmHg 84%
02:00 0°C° 0 mm 3 m/S 734 mmHg 87%
03:00 -2°C° 0 mm 4 m/S 734 mmHg 89%
04:00 -2°C° 0 mm 4 m/S 734 mmHg 91%
05:00 -2°C° 0 mm 4 m/S 734 mmHg 93%
06:00 -1°C° 0 mm 4 m/S 735 mmHg 85%
07:00 0°C° 0 mm 4 m/S 735 mmHg 78%
08:00 +1°C° 0 mm 5 m/S 735 mmHg 71%
09:00 +2°C° 0.1 mm 5 m/S 735 mmHg 65%
10:00 +3°C° 0.1 mm 5 m/S 735 mmHg 58%
11:00 +5°C° 0.1 mm 5 m/S 735 mmHg 52%
12:00 +6°C° 0.1 mm 5 m/S 735 mmHg 49%
13:00 +5°C° 0.1 mm 6 m/S 735 mmHg 45%
14:00 +5°C° 0.1 mm 6 m/S 735 mmHg 42%
15:00 +5°C° 0.2 mm 6 m/S 735 mmHg 46%
16:00 +6°C° 0.2 mm 5 m/S 735 mmHg 50%
17:00 +5°C° 0.2 mm 5 m/S 735 mmHg 55%
18:00 +4°C° 0.2 mm 4 m/S 736 mmHg 63%
19:00 +1°C° 0.2 mm 4 m/S 736 mmHg 71%
20:00 +1°C° 0.2 mm 3 m/S 736 mmHg 80%
21:00 0°C° 0 mm 3 m/S 736 mmHg 83%
22:00 0°C° 0 mm 3 m/S 736 mmHg 86%
23:00 -1°C° 0 mm 3 m/S 736 mmHg 89%

24 April, Samstag

Zeit Temperatur Niederschläge Wind Luftdruck Luftfeuchtigkeit
00:00 -2°C° 0 mm 4 m/S 736 mmHg 89%
01:00 -2°C° 0 mm 4 m/S 736 mmHg 89%
02:00 -2°C° 0 mm 4 m/S 736 mmHg 89%
03:00 -2°C° 0 mm 4 m/S 736 mmHg 89%
04:00 -2°C° 0 mm 4 m/S 736 mmHg 89%
05:00 -2°C° 0 mm 4 m/S 736 mmHg 90%
06:00 -1°C° 0.1 mm 5 m/S 736 mmHg 88%
07:00 -1°C° 0.1 mm 5 m/S 736 mmHg 86%
08:00 -1°C° 0.1 mm 5 m/S 736 mmHg 84%
09:00 0°C° 0.2 mm 5 m/S 736 mmHg 84%
10:00 0°C° 0.2 mm 5 m/S 736 mmHg 85%
11:00 0°C° 0.2 mm 5 m/S 736 mmHg 85%
12:00 +1°C° 0.2 mm 5 m/S 736 mmHg 78%
13:00 +2°C° 0.2 mm 5 m/S 736 mmHg 72%
14:00 +3°C° 0.2 mm 5 m/S 736 mmHg 65%
15:00 +3°C° 0.3 mm 5 m/S 736 mmHg 65%
16:00 +3°C° 0.3 mm 5 m/S 736 mmHg 65%
17:00 +3°C° 0.3 mm 5 m/S 735 mmHg 65%
18:00 +3°C° 0.2 mm 4 m/S 735 mmHg 70%
19:00 0°C° 0.2 mm 4 m/S 735 mmHg 76%
20:00 0°C° 0.2 mm 3 m/S 735 mmHg 81%
21:00 -1°C° 0 mm 3 m/S 735 mmHg 82%
22:00 -1°C° 0 mm 3 m/S 735 mmHg 83%
23:00 -2°C° 0 mm 3 m/S 735 mmHg 83%

25 April, Sonntag

Zeit Temperatur Niederschläge Wind Luftdruck Luftfeuchtigkeit
00:00 -4°C° 0 mm 3 m/S 735 mmHg 86%
01:00 -4°C° 0 mm 3 m/S 735 mmHg 88%
02:00 -5°C° 0 mm 3 m/S 735 mmHg 90%
03:00 -5°C° 0.1 mm 3 m/S 735 mmHg 91%
04:00 -5°C° 0.1 mm 4 m/S 734 mmHg 93%
05:00 -4°C° 0.1 mm 4 m/S 734 mmHg 94%
06:00 -3°C° 0.2 mm 4 m/S 734 mmHg 94%
07:00 -2°C° 0.2 mm 4 m/S 734 mmHg 95%
08:00 -1°C° 0.2 mm 4 m/S 734 mmHg 95%
09:00 -1°C° 0.2 mm 4 m/S 734 mmHg 95%
10:00 -1°C° 0.2 mm 5 m/S 734 mmHg 95%
11:00 -1°C° 0.2 mm 5 m/S 735 mmHg 95%
12:00 0°C° 0.2 mm 5 m/S 735 mmHg 87%
13:00 +1°C° 0.2 mm 5 m/S 735 mmHg 79%
14:00 +2°C° 0.2 mm 5 m/S 735 mmHg 72%
15:00 +2°C° 0.2 mm 5 m/S 735 mmHg 71%
16:00 +2°C° 0.2 mm 5 m/S 735 mmHg 71%
17:00 +2°C° 0.2 mm 5 m/S 735 mmHg 70%
18:00 +1°C° 0 mm 4 m/S 735 mmHg 75%
19:00 +1°C° 0 mm 3 m/S 736 mmHg 80%
20:00 -1°C° 0 mm 3 m/S 736 mmHg 84%
21:00 -1°C° 0 mm 3 m/S 736 mmHg 87%
22:00 -2°C° 0 mm 3 m/S 736 mmHg 91%
23:00 -4°C° 0 mm 3 m/S 736 mmHg 94%

26 April, Montag

Zeit Temperatur Niederschläge Wind Luftdruck Luftfeuchtigkeit
00:00 -4°C° 0.1 mm 3 m/S 736 mmHg 94%
01:00 -4°C° 0.1 mm 3 m/S 736 mmHg 95%
02:00 -4°C° 0.1 mm 3 m/S 736 mmHg 95%
03:00 -3°C° 0.1 mm 2 m/S 736 mmHg 96%
04:00 -3°C° 0.1 mm 2 m/S 736 mmHg 96%
05:00 -3°C° 0.1 mm 2 m/S 736 mmHg 96%
06:00 -2°C° 0 mm 3 m/S 736 mmHg 92%
07:00 -1°C° 0 mm 3 m/S 736 mmHg 88%
08:00 -1°C° 0 mm 3 m/S 737 mmHg 84%
09:00 0°C° 0.1 mm 3 m/S 737 mmHg 80%
10:00 +1°C° 0.1 mm 3 m/S 737 mmHg 75%
11:00 +1°C° 0.1 mm 3 m/S 737 mmHg 71%
12:00 +2°C° 0.1 mm 3 m/S 737 mmHg 68%
13:00 +2°C° 0.1 mm 3 m/S 737 mmHg 66%
14:00 +3°C° 0.1 mm 3 m/S 737 mmHg 64%
15:00 +3°C° 0.1 mm 3 m/S 737 mmHg 64%
16:00 +3°C° 0.1 mm 3 m/S 737 mmHg 64%
17:00 +3°C° 0.1 mm 3 m/S 737 mmHg 64%
18:00 +3°C° 0 mm 2 m/S 737 mmHg 71%
19:00 +1°C° 0 mm 2 m/S 737 mmHg 77%
20:00 +1°C° 0 mm 1 m/S 737 mmHg 84%
21:00 +1°C° 0 mm 1 m/S 737 mmHg 84%
22:00 0°C° 0 mm 1 m/S 737 mmHg 85%
23:00 0°C° 0 mm 1 m/S 737 mmHg 85%
Mehr zeigen

Wir brauchen deine Erlaubnis

Meteoprog und unser Service Anbieter werden persönliche Daten aufbewahren, so wie Cookies, Geräte Bezeichnung oder ähnliche Technologien von deinem Gerät und Prozess, so wie Persönliche Daten Inhalte und Werbungen, genauso wie social Media und den Verkehr zu analysieren.

  • Aufbewahrung und/oder Zugang zu deiner Geräte Informationen.

    Cookies, Geräte Bezeichnung oder andere Informationen, können aufbewahrt oder Zugang zu deinem Gerät erhalten, für den Grund, der oben angegeben wird.

  • Personalisierte Werbung und Inhalte, Messungen, Einblick in das Publikum und Produkt Entwicklung.

    Werbungen und Inhalte können personalisiert werden, basierend auf ein Profil. Mehr Daten können besser personalisierte Werbungen und Inhalte hinzufügen. Werbung und Inhalte können gezeigt und gemessen werden. Einblicke über das Publikum, welche die Werbung gesehen haben und den Inhalt, können abgeleitet werden. So wie Daten können genutzt werden, um es zu verbessern oder die Benutzer Erfahrung zu verbessern das System und die Software.

Wenn du “Ich stimme zu” klickst, erlaubst du uns, die Cookies zu benutzen die Geräte Bezeichnung, den Web oder ähnliche Technologien zu benutzen. Deine Settings, können in deinem Gerät bei deinem Browser geändert werden.

Für den bestimmten Zweck, berechtigten Interessen beruhen darauf, mehr als auf den Inhalt. Du kannst mehr darüber in unseren Privaten und Cookie Politik lesen.